Погода в Анне

Погода в Анне : погода сейчас, прогноз погоды и архив. Всё, что Вы хотите узнать о погоде в Анне!

Хотите узнать прогноз погоды в Анне? Тогда Вам сюда: Погода в Анне

Поиск расширенной информации на нашем сайте:

Другие новости

Новости СМИ2

Главная страница сайта

Новости сайта

02.10.2013

Напоминаем, что на нашем новом сайте вы можете получить высокодетализированные прогнозы погоды по пунктам России, СНГ и мира (включающие важные для авиации метеовеличины, такие как направление и скорость ветра, видимость, явления погоды, количество и форма облачности, нижняя и верхняя граница облачности), а также ознакомиться с разнообразными материалами по авиационной метеорологии и подборкой полезных ссылок на эту тему.

Сайт Метеоцентр.Азия посвящён разработке технологий оптимизации авиаметеорологического обслуживания, включая проектирование и перспективное создание нескольких автоматизированных авиаметеорологических систем:
- система выпуска высокодетальных прогностических карт явлений погоды для нижнего воздушного пространства по России и ближнему зарубежью;
- система верификации прогнозов TAF (выпускаемых синоптиками официальных АМСГ РФ и ближнего зарубежья) и AUTOTAF (выпускаемых сайтом Метеоцентр.Азия) - выявление ошибок, онлайн-сопоставление с фактической погодой METAR, автоматическое внесение коррективов в прогнозы при резком отклонении фактической погоды от прогноза, подсчёт оправдываемости прогнозов по элементам и в целом;
- система обработки, анализа и отображения авиаметеорологической информации для применения провайдерами метеорологической информации.

Рекомендуем: Здесь яблочный уксус для похудения купить можно дешевле, чем в Китае!

Погода в Анне - сегодня

Время (UTC), дата Ветер
(°,м/с) 
Видим.   Явления Облачность Т
(°С)
Тd
(°С)
f(%) Тe
(°С)
Pmin
(гПа)
dP
(гПа)
Po
(мм)
O2
(г/м3)
Тmin Tmax R s Состояние
почвы
09 26.04.17 240 (ЮЗ) 6-12{13}  10 км    5/3 600 м верхняя 
[Cu hum|Ci sp]
+15.8 -2.9 28 +15  1024.6  0.1  755  288           
12 26.04.17 200 (Ю) 6-11{14}  10 км    6/0 верхняя 
[Ci sp]
+17.8 -2.6 25 +18  1023.7  -0.8  754  285           
15 26.04.17 210 (ЮЗ) 6-11{13}  10 км    4/0 верхняя 
[Ci sp]
+17 -1.7 28 +17  1022.5  -1.2  753  286    +17.9       
18 26.04.17 200 (Ю) 10 км    4/0 верхняя 
[Ci sp]
+13.8 -1.5 35 +13  1023.7  754  289           
21 26.04.17 200 (Ю) 10 км    ясно 
+10.9 +0.4 48 +10  1024.5  0.6  754  292           
00 27.04.17 200 (Ю) 4{10}  10 км    ясно 
+9.7 -0.7 48 +9  1024.8  0.2  754  294           
03 27.04.17 190 (Ю) 10 км    8/0 верхняя 
[Ci sp]
+7.8 +0.5 60 +7  1025.2  0.3  755  296  +6.9         
06 27.04.17 200 (Ю) 10 км    8/0 верхняя 
[Ci fib]
+14.2 +0.9 40 +14  1025.2  0.4  755  289           
09 27.04.17 200 (Ю) 6{12}  10 км    8/0 верхняя 
[Ci fib]
+17.6 -0.2 30 +17  1024.5  -0.5  755  286           
12 27.04.17 200 (Ю) 6-12{13}  10 км    9/0 верхняя 
[Ci fib]
+20.5 -4.1 19 +21  1022.7  -1.5  753  283           
15 27.04.17 190 (Ю) 5-11{12}  10 км    9/0 верхняя 
[Ci fib]
+20.2 -5.9 17 +20  1021.6  -1.3  752  283    +20.8       
18 27.04.17 180 (Ю) 4{11}  10 км    8/0 верхняя 
[Ci sp]
+16.4 -1.3 30 +16  1022.6  0.9  753  286           
21 27.04.17 190 (Ю) 5{10}  10 км    ясно 
+13.7 +0.5 40 +13  1023.1  0.3  753  289           
00 28.04.17 180 (Ю) 10 км    ясно 
+12.3 +0.9 46 +12  1023.4  0.3  754  290           
03 28.04.17 200 (Ю) 10 км    4/0 верхняя 
[Ci fib]
+10 +0.7 52 +9  1024  0.3  754  293  +9.7         
06 28.04.17 200 (Ю) 10 км    3/0 верхняя 
[Ci fib]
+14.9 +2.9 44 +15  1023.8  0.2  754  288           
09 28.04.17 170 (Ю) 10 км    6/0 верхняя 
[Ci fib]
+20.4 +2.4 30 +20  1022.6  -0.8  753  282           
12 28.04.17 200 (Ю) 5-10{11}  10 км    6/0 верхняя 
[Ci sp]
+22.6 +2.4 26 +23  1021.2  -1.3  752  280           
15 28.04.17 160 (Ю) 4{11}  10 км    8/0 верхняя 
[Ci fib]
+23 +2.8 27 +23  1020.1  -1.1  752  279    +23.4       
18 28.04.17 160 (Ю) 3{10}  10 км    3/0 верхняя 
[Ci fib]
+18.8 +2.3 33 +19  1021.5  1.1  752  283           
21 28.04.17 150 (ЮВ) 10 км    ясно 
+16 +1.8 38 +16  1021.9  0.2  753  286           
00 29.04.17 140 (ЮВ) 10 км    ясно 
+12.7 +0.9 44 +13  1022  753  290           
03 29.04.17 140 (ЮВ) 10 км    ясно 
+10.1 +0.6 52 +10  1021.9  -0.4  752  292  +9.1         
06 29.04.17 140 (ЮВ) 10 км    ясно 
+13.9 +0.4 40 +14  1021.5  -0.1  752  288           
09 29.04.17 150 (ЮВ) 4{10}  10 км    ясно 
+17.2 +1.5 35 +17  1020.7  -0.6  752  285           
Время (UTC), дата Ветер
(°,м/с) 
Видим.   Явления Облачность Т
(°С)
Тd
(°С)
f(%) Тe
(°С)
Pmin
(гПа)
dP
(гПа)
Po
(мм)
O2
(г/м3)
Тmin Tmax R s Состояние
почвы

Для получения пояснительной информации подведите курсор к названию столбца.

ПОГОДА в Анне - архив

Всё, что Вы хотите узнать о погоде в Анне - удобно и подробно!

Выберите нужную дату (начиная с 1 января 2015* года) и нажмите кнопку "Найти".
Будут отображены архивные сводки погоды по пункту Анна, начиная с указанной даты.


Отображать данные в формате CSV (для использования в таблицах Excel)


Внимание! Наш архив погоды предназначен исключительно для личного некоммерческого использования в познавательных целях. Если Вам необходимы официальные справки о состоянии погоды (для производственных, юридических, коммерческих и т.п. целей), обращайтесь в органы Росгидромета.

*Примечание: данная дата относится к архиву по метеостанциям СССР (Россия, СНГ, Балтия).
Архив по метеостанциям Зарубежной Европы и Азии (кроме Китая) хранится 10 дней, по другим регионам земного шара (Китай, Африка, Америка, Австралия, Океания) - 1 день.

Анна - район местоположения метеостанции


Название, широта, долгота, высота метеостанции:
Анна 51.5°ш. 40.4°д. 154 м над ур. моря [Российская Федерация]

Дополнительная информация

В oтличие oт бoльшинства пoгoдных сайтoв мы публикуем пoдрoбную метеoинфoрмацию в детальнoм прoфессиoнальнoм фoрмате.

Характеристики температуры и влажнoсти вoздуха измеряются на высoте 2 м в тени вдали oт зданий и деревьев.
Скoрoсть ветра измеряется на высoте 10 м (на урoвне рoста челoвека скoрoсть ветра ниже в 1.5-2 раза). Если метеoстанция нахoдится в гoрoде или в лесу, тo скoрoсть ветра занижена на 2-4 м/с пo сравнению с oткрытым местoм. Скoрoсть ветра над акватoриями крупных рек и oзёр, а также на вершинах хoлмoв на 2-5 м/с выше, чем в oбычных услoвиях.
Атмoсфернoе давление в разных тoчках местнoсти мoжет значительнo oтличаться oт давления на метеoстанции, в зависимoсти oт услoвий рельефа (при пoдъёме на 10 м давление пoнижается примернo на 1 мм рт.ст.).